Location: Drebach
(50.6670°N, 13.0330°E)
Time: 05:17:03
(UTC+02:00)

ISS - Visible Passes

Search period start: 29 March 2020 00:00
Search period end: 08 April 2020 01:00
Orbit: 417 x 423 km, 51.6° (Epoch: 29 March)

Date Brightness Start Highest point End Pass type
(mag) Time Alt. Az. Time Alt. Az. Time Alt. Az.
29 Mar -3.6 20:08:12 10° W 20:11:33 73° N 20:14:55 10° E visible
29 Mar -3.5 21:45:04 10° WNW 21:48:11 60° SW 21:48:11 60° SW visible
30 Mar -3.8 20:57:42 10° WNW 21:01:03 79° SSW 21:02:43 27° ESE visible
30 Mar -1.1 22:34:49 10° W 22:35:41 15° W 22:35:41 15° W visible
31 Mar -3.7 20:10:19 10° WNW 20:13:41 86° NNE 20:17:03 10° ESE visible
31 Mar -2.6 21:47:15 10° W 21:50:14 32° SW 21:50:14 32° SW visible
01 Apr -3.1 20:59:47 10° W 21:03:01 45° SSW 21:04:47 22° SE visible
02 Apr -3.4 20:12:22 10° WNW 20:15:41 61° SSW 20:19:00 10° ESE visible
02 Apr -1.5 21:49:52 10° W 21:52:01 16° SW 21:52:21 16° SSW visible
03 Apr -1.9 21:02:04 10° W 21:04:48 23° SW 21:06:59 13° SSE visible
04 Apr -2.3 20:14:28 10° W 20:17:31 32° SSW 20:20:32 10° SSE visible
05 Apr -0.9 21:05:34 10° WSW 21:06:20 11° SW 21:07:06 10° SSW visible
